Regional Weather Roundup
Issued by NWS

Home | Current Version | Previous Version | Graphics & Text | Print | Product List | Glossary On
Versions: 1 2 3 4 5 6 7 8 9 10 11 12 13 14 15 16 17 18 19 20 21 22 23 24 25 26 27 28 29 30 31 32 33 34 35 36 37 38 39 40 41 42 43 44 45 46 47 48 49 50
000
ASUS43 KFSD 221102
RWRSD

WEATHER ROUNDUP FOR SOUTH DAKOTA
NATIONAL WEATHER SERVICE SIOUX FALLS SD
600 AM CDT WED OCT 22 2014

NOTE: "FAIR" INDICATES FEW OR NO CLOUDS BELOW 12,000 FEET WITH NO
SIGNIFICANT WEATHER AND/OR OBSTRUCTIONS TO VISIBILITY.


SDZ001>005-009-010-012>017-221200-
NORTHWEST AND NORTH CENTRAL SOUTH DAKOTA

CITY           SKY/WX    TMP DP  RH WIND       PRES   REMARKS
FAITH            N/A     56  40  55 W16       29.86R
MOBRIDGE       PTCLDY    57  52  83 SE3       29.74R
$$

SDZ012>016-024>037-041>051-057-063-072>074-221200-
SOUTHWEST AND SOUTH CENTRAL SOUTH DAKOTA

CITY           SKY/WX    TMP DP  RH WIND       PRES   REMARKS
RAPID CTY ARPT CLOUDY    56  34  43 NW14      29.90R
PIERRE         PTCLDY    55  51  86 SE10      29.77S
CUSTER         CLOUDY    50  38  63 CALM      29.96R
ELLSWORTH AFB  CLOUDY    57  34  43 N15       29.90R
PHILIP         CLOUDY    61  42  49 NW20G30   29.83R
PINE RIDGE     CLOUDY    55  49  80 E3        29.91R
SPEARFISH      FAIR      50  32  50 W15       29.96R
WINNER         FAIR      64  53  67 SW20G25   29.83R
$$

SDZ004>011-016>023-039-040-221200-
NORTHEAST SOUTH DAKOTA

CITY           SKY/WX    TMP DP  RH WIND       PRES   REMARKS
ABERDEEN       CLEAR     59  42  53 S18G28    29.82R
WATERTOWN      CLEAR     52  42  69 S23G31    29.90F
SISSETON         N/A     51  43  74 S18G26    29.88S
$$

SDZ017-020-022-023-036>040-048>070-221200-
SOUTHEAST SOUTH DAKOTA

CITY           SKY/WX    TMP DP  RH WIND       PRES   REMARKS
SIOUX FALLS    PTCLDY    54  44  69 S16G28    30.00S
HURON          CLEAR     56  41  57 S16G25    29.86S
CHAMBERLAIN    MOCLDY    60  51  72 S13       29.83F
MITCHELL       CLEAR     55  42  61 SE21      29.90S
YANKTON        CLEAR     54  43  66 SE13G25   29.98S
$$

ABBREVIATIONS USED IN REMARKS
   TC - TEMPERATURE IN CELSIUS
  WCI - WIND CHILL INDEX
   HX - HEAT INDEX
  VSB - VISIBILITY




USA.gov is the U.S. government's official web portal to all federal, state and local government web resources and services.